Omak, WA

12:14 AM PDT on April 23, 2017 (GMT -0700)
Omak

Weather History for KOMK - June, 2012

Change the Weather History Date:

Monday, June 18, 2012

  Actual Average Record
Temperature  
Mean Temperature 60 °F 66 °F  
Max Temperature 71 °F 80 °F 98 °F (1940)
Min Temperature 48 °F 52 °F 35 °F (1954)
Degree Days  
Heating Degree Days 5 2  
Month to date heating degree days 109 51  
Since 1 June heating degree days 109 51  
Since 1 July heating degree days 6674 6324  
Cooling Degree Days 0 3  
Month to date cooling degree days 7 38  
Year to date cooling degree days 11 61  
Since 1 June cooling degree days 7 38  
Growing Degree Days 10 (Base 50)    
Moisture  
Dew Point 46 °F    
Average Humidity 69    
Maximum Humidity 96    
Minimum Humidity 42    
Precipitation  
Precipitation 0.11 in 0.05 in 0.55 in (2016)
Month to date precipitation 1.29 0.73  
Year to date precipitation 7.08 7.48  
Sea Level Pressure  
Sea Level Pressure 29.74 in    
Wind  
Wind Speed 5 mph (NNW)    
Max Wind Speed 12 mph    
Max Gust Speed 20 mph    
Visibility 10 miles    
Events Rain    
T = Trace of Precipitation, MM = Missing Value Source: NWS Daily Summary

Daily Weather History Graph

Daily Weather History Graph

Search for Another Location

Airport or City:

Trip Planner

Search our weather history database for the weather conditions in past years. The results will help you decide how hot, cold, wet, or windy it might be!

Date:

Astronomy

Jun. 18, 2012 Rise Set
Actual Time 4:55 AM PDT 9:02 PM PDT
Civil Twilight 4:13 AM PDT 9:44 PM PDT
Nautical Twilight 3:14 AM PDT 10:44 PM PDT
Astronomical Twilight 1:18 AM PDT 12:41 AM PDT
Moon 4:17 AM PDT (6/18) 8:21 PM PDT (6/18)
Length of Visible Light 17h 30m
Length of Day
16h 06m
Waning Crescent, 1% of the Moon is Illuminated
Jun 18
Waning Crescent
Jun 19
New
Jun 26
First Quarter
Jul 3
Full
Jul 10
Last Quarter

Hourly Weather History & Observations

Time (PDT) Temp. Dew Point Humidity Pressure Visibility Wind Dir Wind Speed Gust Speed Precip Events Conditions
12:53 AM 59.0 °F 41.0 °F 51% 29.64 in 10.0 mi SE 6.9 mph - N/A   Clear
1:53 AM 51.1 °F 42.1 °F 71% 29.64 in 10.0 mi North 3.5 mph - N/A   Clear
2:53 AM 53.1 °F 43.0 °F 69% 29.64 in 10.0 mi WNW 5.8 mph - N/A   Mostly Cloudy
3:53 AM 55.0 °F 44.1 °F 67% 29.65 in 10.0 mi SSE 3.5 mph - N/A   Overcast
4:53 AM 54.0 °F 46.0 °F 75% 29.67 in 10.0 mi SW 4.6 mph - 0.00 in Rain Light Rain
5:53 AM 52.0 °F 48.9 °F 89% 29.69 in 10.0 mi NNW 6.9 mph - 0.04 in Rain Light Rain
6:53 AM 52.0 °F 50.0 °F 93% 29.70 in 10.0 mi NNW 5.8 mph - 0.02 in Rain Light Rain
7:53 AM 53.1 °F 50.0 °F 89% 29.72 in 10.0 mi NNW 4.6 mph - 0.01 in Rain Light Rain
9:53 AM 57.0 °F 50.0 °F 77% 29.74 in 10.0 mi Calm Calm - 0.01 in   Overcast
10:53 AM 61.0 °F 48.0 °F 62% 29.75 in 10.0 mi North 4.6 mph - N/A   Mostly Cloudy
11:53 AM 64.0 °F 48.0 °F 56% 29.75 in 10.0 mi NNE 9.2 mph - N/A   Overcast
12:53 PM 64.0 °F 45.0 °F 50% 29.76 in 10.0 mi NNW 3.5 mph - N/A   Overcast
1:53 PM 62.1 °F 48.0 °F 60% 29.78 in 10.0 mi North 9.2 mph - 0.01 in Rain Light Rain
2:53 PM 66.0 °F 46.9 °F 50% 29.77 in 10.0 mi Calm Calm - 0.00 in   Overcast
3:53 PM 66.9 °F 45.0 °F 45% 29.76 in 10.0 mi Variable 5.8 mph - N/A   Overcast
4:53 PM 68.0 °F 45.0 °F 43% 29.76 in 10.0 mi Calm Calm - 0.00 in   Overcast
5:53 PM 68.0 °F 44.1 °F 42% 29.76 in 10.0 mi Calm Calm - N/A   Overcast
6:53 PM 66.9 °F 46.0 °F 47% 29.77 in 10.0 mi Calm Calm - N/A   Clear
7:53 PM 66.0 °F 48.9 °F 54% 29.78 in 10.0 mi North 3.5 mph - N/A   Mostly Cloudy
8:53 PM 63.0 °F 44.1 °F 50% 29.79 in 10.0 mi West 6.9 mph - 0.00 in   Overcast
9:53 PM 57.0 °F 44.1 °F 62% 29.82 in 10.0 mi North 6.9 mph - N/A   Scattered Clouds
10:53 PM 54.0 °F 39.0 °F 57% 29.84 in 10.0 mi NW 8.1 mph - N/A   Clear
11:53 PM 48.9 °F 41.0 °F 74% 29.86 in 10.0 mi North 8.1 mph - N/A   Clear